HYLAS 4 (43272 NORAD) Tracking and Keplerian Element Data

This shows tracking and keplerian element data for the satellite.

Feedback or suggestion? Click here.




ElementValue
Catalog43272
NameHYLAS 4
Epoch Orbit234
Epoch Day322.93214589
Epoch Year2018
RAAN114.8464
Inclination0.0601
Eccentricity0.0004015
Argument of Perigee77.2544
Mean Anonmoly167.9241
Mean Motion1.00270832
Decay Rate-2.24E-06
L11 43272U 18033B 18322.93214589 -.00000224 00000-0 00000+0 0 9998
L22 43272 0.0601 114.8464 0004015 77.2544 167.9241 1.00270832 2346

Live tracking and technical data element details for HYLAS 4 (NORAD 43272). HYLAS 4 can be tracked NOW for your location showing map with azimuth and elevation plus other details from your city location.

Track the satellite on the map from your city or location and see movement details for azimuth, elevation, latitude, longitude, range, height, and movement on the map or in text.







IsCatalogInMostPopularTable: catalog: 43272, numindb: 76
Update: records affected: 1



GetName: 43272 HYLAS 4

Hit Count: updated at: Mon, 19 Nov 2018 15:37:05 GMT